Location: Gajan
(43.0218°N, 1.1244°E)
Time: 15:41:41
(UTC+00:00)

Cosmos 1745 Rocket - Pass Details

Date: 22 April 2021
Orbit: 952 x 998 km, 83.0° (Epoch: 12 May)

Event Time Altitude Azimuth Distance (km) Brightness Sun altitude
Rises 21:44:43 0° 356° (N) 3,709 7.9 -27.1°
Reaches altitude 10° 21:47:21 10° 1° (N) 2,750 7.0 -27.4°
Enters shadow 21:53:25 53° 75° (ENE) 1,191 4.2 -28.0°
